Location: La Comballaz
(46.3780°N, 7.0817°E)
Time: 09:27:48
(UTC+00:00)

In-Cosmos 22 Rocket - Pass Details

Date: 09 April 2020
Orbit: 790 x 888 km, 81.2° (Epoch: 24 May)

Event Time Altitude Azimuth Distance (km) Brightness Sun altitude
Rises 20:21:39 0° 347° (NNW) 3,506 8.2 -21.0°
Reaches altitude 10° 20:24:07 10° 346° (NNW) 2,564 7.4 -21.3°
Maximum altitude 20:29:58 75° 262° (W) 919 4.4 -22.1°
Enters shadow 20:32:50 31° 183° (S) 1,491 5.1 -22.5°
